Miscellaneous Local Product
Issued by NWS North Platte, NE

Home | Current Version | Previous Version | Text Only | Print | Product List | Glossary On
Versions: 1 2 3 4 5 6 7 8 9 10 11 12 13 14 15 16 17 18 19 20 21 22 23 24 25 26 27 28 29 30 31 32 33 34 35 36 37 38 39 40 41 42 43 44 45 46 47 48 49 50
000
AXUS43 KLBF 290510
MISLBF


WESTERN AND NORTH CENTRAL NEBRASKA HOURLY WEATHER ROUNDUP
NATIONAL WEATHER SERVICE NORTH PLATTE NE
1200 AM CDT THU JUN 29 2017

NOTE: "FAIR" INDICATES FEW OR NO CLOUDS BELOW 12,000 FEET WITH NO
SIGNIFICANT WEATHER AND/OR OBSTRUCTIONS TO VISIBILITY.

NOTE: STATIONS NOT REPORTING VARIABLES SUCH AS SKY/WEATHER OR
PRESSURE ARE PROVIDED BY RAWS AND APRS NETWORKS AND ARE NOT UNDER
NATIONAL WEATHER SERVICE QUALITY CONTROL.

...OBSERVATIONS IN AND NEAR THE EASTERN PANHANDLE OF NEBRASKA...

CITY           SKY/WX    TMP DP  RH WIND       PRES   REMARKS
PINE RIDGE     CLOUDY    63  55  75 NE10      29.78F
GORDON         FAIR      61  54  76 S12G21    29.79F
CHADRON        CLOUDY    62  55  77 CALM      29.80R
ALLIANCE       CLOUDY    69  48  47 E5        29.86R
SIDNEY         CLEAR     62  51  67 CALM      29.88R
CRESCENT LAKE    N/A     66  51  58 S6G13       N/A
$$

...OBSERVATIONS IN NORTHERN NEBRASKA AND FAR SOUTHERN SOUTH DAKOTA...

CITY           SKY/WX    TMP DP  RH WIND       PRES   REMARKS
WINNER         FAIR      71  47  42 E3        29.75S
VALENTINE      CLOUDY    71  47  42 N9        29.80R
THEDFORD       CLOUDY    76  47  36 SE5       29.77F
AINSWORTH      CLOUDY    66  57  73 S6        29.78S
O`NEILL        PTCLDY    69  58  68 NE6       29.74F
ORD            CLOUDY    65  60  84 NW5       29.76R
BROKEN BOW     CLOUDY    72  58  61 N6        29.85R
VALENTINE NWR    N/A     67  59  74 CALM        N/A
HALSEY           N/A     76  48  36 S13G21      N/A
BUTTE            N/A     75  50  41 NE5         N/A
CHAMBERS         N/A     69  57  65 CALM        N/A
$$

...OBSERVATIONS IN SOUTHWEST NEBRASKA AND FAR NORTHEAST COLORADO...

CITY           SKY/WX    TMP DP  RH WIND       PRES   REMARKS
WRAY           TSTM      75  46  35 SW16G25   29.86R
IMPERIAL       MOCLDY    70  50  49 NE25      29.80F
OGALLALA       CLEAR     64  56  73 E12       29.80S
NORTH PLATTE   LGT RAIN  67  57  70 NE13      29.80F
MCCOOK         MOCLDY    76  57  51 CALM      29.77R
LEXINGTON      CLOUDY    73  65  78 N12       29.79R
STAPLETON        N/A     67  56  67 E3          N/A
GOTHENBURG       N/A     74  60  60 CALM        N/A
CALLAWAY         N/A     71  61  71 NW9         N/A
$$

...OBSERVATIONS IN CENTRAL LINCOLN COUNTY AREA...

CITY           SKY/WX    TMP DP  RH WIND       PRES   REMARKS
N.P. AIRPORT   LGT RAIN  67  57  70 NE13      29.80F
N.P. DOWNTOWN    N/A     70  56  60 MISG        N/A
N.P. SOUTHEAST   N/A     69  55  60 E3          N/A
N.P. HILLCREST   N/A     69  54  58 E16         N/A
$$

...SOME OBSERVATIONS FROM AROUND THE REGION...

CITY           SKY/WX    TMP DP  RH WIND       PRES   REMARKS
DENVER         CLOUDY    65  46  50 SE10      29.87R
LIMON          TSTM      63  55  75 NE13      29.94R
ASPEN          CLOUDY    60  27  28 SW5       30.06R
LARAMIE        CLOUDY    57  34  41 W7        30.06R
CASPER         CLEAR     57  47  69 N10       29.96R
CHEYENNE       CLOUDY    69  35  28 NW5       29.98R
SCOTTSBLUFF    CLOUDY    70  51  51 N6        29.83R
GRAND ISLAND   CLOUDY    75  68  78 NW3       29.73R
OMAHA          PTCLDY    76  63  64 N5        29.68S
SIOUX FALLS    CLEAR     64  57  78 CALM      29.71R
PIERRE         PTCLDY    65  42  43 NE7       29.74R
RAPID CITY     MOCLDY    60  51  72 NW7       29.84F
BISMARCK       CLOUDY    65  53  65 CALM      29.76R
KANSAS CITY    PTCLDY    80  68  66 S18G29    29.77R
HILL CITY      CLOUDY    76  61  59 NE12      29.73R
WICHITA        PTCLDY    80  66  62 S18G28    29.76S
DODGE CITY     CLEAR     79  64  60 S18       29.74R
OKLAHOMA CITY  CLEAR     77  65  66 S16       29.83S
DALLAS         CLEAR     81  70  69 SE10      29.86S
AMARILLO       CLEAR     81  56  42 S23G32    29.85R
$$




USA.gov is the U.S. government's official web portal to all federal, state and local government web resources and services.